sat.trackr.live / text

‹ back to catalog

TIANYAN 23

NORAD 63209 · 2025-051B

PAYLOAD ACTIVE UNKNOWN

§ Identity

Operator
Country
PRC
Launch date
2025-03-15
Launch site
JSC
Launch vehicle
Mass (kg)
RCS (m²)

External: N2YO · Heavens-Above · Gunter

§ Orbital elements

Epoch: 2026-05-25T05:31:03.786816Z

Period
93.09 min
Inclination
97.4510°
Eccentricity
0.0006822
Mean motion
15.46864272 rev/d
Perigee alt
421.3 km
Apogee alt
430.5 km
Semi-major
6,804.0 km
B*
7.1092e-4
RAAN
231.7628°
Arg perigee
164.6048°
Mean anomaly
195.5410°
Rev number
6,681

§ Raw data

TIANYAN 231 63209U 25051B   26145.22990494  .00035773  00000+0  71092-3 0  99962 63209  97.4510 231.7628 0006822 164.6048 195.5410 15.46864272 66815

JSON: /api/v1/satellites/63209 · /tle

For live sub-satellite position, see the globe view (requires WebGL).

§ Visibility from observer

Set your observer location to see the next 7 days of passes ≥ 10°. The values pass through the URL so the page stays shareable.

No JS? Fill the form by hand. The geolocation button needs JavaScript.

§ Radio — SatNOGS DB

ModeDescriptionDownlinkUplink
FM Telemetry 401.155 MHz

1 transmitter · refreshed weekly from db.satnogs.org